星链-37602(STARLINK-37602)

导读

STARLINK-37602(NORAD编号69358)是美国太空探索技术公司(SpaceX)星链低轨通信星座的成员卫星。作为星链全球互联网服务组网的组成部分,该卫星运行于低地球轨道,搭载星间激光通信链路,可与同星座卫星、地面终端通信,为全球偏远、网络覆盖不足区域提供低延迟、高速率的卫星互联网接入服务。截至2026年6月,星链全球在轨卫星超5400颗,覆盖75个以上国家和地区,该卫星正按设计在轨稳定运行,承担通信载荷分发、网络覆盖补盲等任务,是星链全球服务网络的重要组成单元。

Basic Information
目录编号:
69358
目录名称:
STARLINK-37602
国际标识:
2026-123F
轨道中心:
EARTH
卫星名称:
星链-37602
卫星全名:
星链-37602(STARLINK-37602)
卫星状态:
在轨 (已飞行99 天)
发射日期:
2026-06-04 UTC
国别 :
美国 (US)
星等 :
--
Orbit Information
数据来源 国际轨道数据
星历时间: 2026-09-09T20:57:09+0800
1天前
查看轨道信息
半长轴: 6840.868km
偏心率: 0.0001718
轨道倾角: 53.163°
近地点辐角 84.949°
升交点赤经 193.242°
平近点角 275.171°
近地点: 461.555km
远地点: 463.907km
周期: 93.848分钟
每日圈数: 15.343907
Detailed Information
固有亮度:
5
最大亮度:
2.5
卫星平台:
Starlink V1.0
覆盖范围:
全球
运营商:
太空探索技术公司
运营商所在国:
美国
制造商(研发单位):
太空探索技术公司
制造商所在国:
美国
使用方式:
暂无
Satellite Introduction
Starlink 计划是 SpaceX 推出的全球卫星互联网项目,通过发射低轨道卫星,为全球尤其是偏远地区提供高速、低延迟的互联网服务。自 2019 年起,Starlink 已部署数千颗卫星,旨在缩小全球数字鸿沟,推动互联网普及。该项目还为军事、航空等行业提供通信支持,带来广泛经济效益。
2D Orbit Map
3D Orbit Map
Orbit Altitude Analysis Chart
Orbit Inclination Analysis Chart
Orbit Comprehensive Analysis Chart
View Comprehensive Chart
Conjunction Data List
Event ID Objects TCA Miss Dist (km) Collision Risk Probability Collision Risk Index (CRI) Action
CDM_260913-014906-509506-935821
2026-09-13T
01:49:46+0000
0.851 km
远距离
2.306233E-5 中风险 0.62
CDM_260911-105103-376506-935822
2026-09-11T
10:51:57+0000
1.796 km
极远距离
3.480536E-6 低风险 0.46
CDM_260912-013105-174306-935821
2026-09-12T
01:31:32+0000
1.145 km
极远距离
1.929715E-6 低风险 0.41
CDM_260912-122305-766606-935821
2026-09-12T
12:23:07+0000
1.998 km
极远距离
1.678658E-6 低风险 0.39
CDM_260911-010205-316806-935821
2026-09-11T
01:02:52+0000
2.921 km
极远距离
1.193935E-6 低风险 0.37
CDM_260912-202106-509506-935821
2026-09-12T
20:21:30+0000
2.621 km
极远距离
9.035234E-7 极低风险 0.34
Miss Distance Evolution Trend with All Objects
Collision Probability Evolution Trend with All Objects